TimeEST,TemperatureF,Dew PointF,Humidity,Sea Level PressureIn,VisibilityMPH,Wind Direction,Wind SpeedMPH,Gust SpeedMPH,PrecipitationIn,Events,Conditions,WindDirDegrees,DateUTC
12:54 AM,39.9,24.1,53,30.01,10.0,NE,16.1,-,N/A,,Overcast,40,2012-11-07 05:54:00
1:54 AM,39.9,25.0,55,30.00,10.0,NE,16.1,21.9,N/A,,Overcast,40,2012-11-07 06:54:00
2:54 AM,39.9,25.0,55,29.96,10.0,NE,15.0,24.2,N/A,,Overcast,40,2012-11-07 07:54:00
3:54 AM,39.0,25.0,57,29.94,10.0,NNE,19.6,27.6,N/A,,Overcast,30,2012-11-07 08:54:00
4:54 AM,39.0,25.0,57,29.93,10.0,NE,12.7,23.0,N/A,,Overcast,40,2012-11-07 09:54:00
5:54 AM,39.0,21.9,50,29.95,10.0,NE,13.8,26.5,N/A,,Overcast,40,2012-11-07 10:54:00
6:43 AM,39.2,23.0,52,29.95,10.0,NNE,13.8,19.6,N/A,,Overcast,30,2012-11-07 11:43:00
6:54 AM,39.0,23.0,53,29.95,10.0,NE,17.3,-,N/A,,Overcast,40,2012-11-07 11:54:00
7:54 AM,39.0,25.0,57,29.95,10.0,NNE,13.8,21.9,N/A,,Overcast,20,2012-11-07 12:54:00
8:29 AM,39.2,26.6,61,29.94,10.0,NNE,17.3,21.9,N/A,,Overcast,20,2012-11-07 13:29:00
8:54 AM,39.9,26.1,58,29.93,10.0,North,13.8,-,N/A,,Overcast,10,2012-11-07 13:54:00
9:54 AM,42.1,28.0,58,29.91,10.0,NNE,17.3,26.5,N/A,,Overcast,30,2012-11-07 14:54:00
10:54 AM,42.1,28.0,58,29.90,10.0,North,17.3,24.2,N/A,,Overcast,10,2012-11-07 15:54:00
11:39 AM,39.2,30.2,70,29.90,8.0,North,17.3,26.5,0.00,Rain,Light Rain,10,2012-11-07 16:39:00
11:50 AM,39.2,32.0,75,29.90,6.0,North,10.4,24.2,0.00,Rain,Light Rain,10,2012-11-07 16:50:00
11:54 AM,37.9,30.9,76,29.90,5.0,North,15.0,20.7,0.00,Rain-Snow,Light Rain,360,2012-11-07 16:54:00
12:03 PM,37.4,30.2,75,29.89,4.0,North,16.1,-,0.01,Rain-Snow,Light Rain,360,2012-11-07 17:03:00
12:06 PM,37.4,30.2,75,29.89,4.0,North,13.8,-,0.02,Rain-Snow,Light Rain,360,2012-11-07 17:06:00
12:26 PM,35.6,33.8,93,29.89,4.0,North,12.7,-,0.03,Rain-Snow,Light Rain,350,2012-11-07 17:26:00
12:50 PM,35.6,32.0,87,29.88,4.0,NNW,12.7,-,0.05,Rain-Snow,Light Rain,340,2012-11-07 17:50:00
12:54 PM,35.1,32.0,89,29.88,4.0,NNW,13.8,-,0.05,Rain-Snow,Light Rain,340,2012-11-07 17:54:00
1:24 PM,35.6,32.0,87,29.87,5.0,NNW,9.2,-,0.04,Rain,Light Rain,340,2012-11-07 18:24:00
1:42 PM,35.6,32.0,87,29.88,5.0,North,11.5,-,0.04,Rain-Snow,Light Rain,350,2012-11-07 18:42:00
1:46 PM,35.6,32.0,87,29.88,4.0,North,10.4,-,0.05,Rain-Snow,Light Rain,360,2012-11-07 18:46:00
1:54 PM,36.0,32.0,86,29.88,4.0,North,9.2,-,0.05,Rain-Snow,Light Rain,350,2012-11-07 18:54:00
2:14 PM,35.6,33.8,93,29.88,5.0,North,15.0,-,0.01,Rain-Snow,Light Rain,350,2012-11-07 19:14:00
2:22 PM,35.6,33.8,93,29.88,5.0,North,13.8,23.0,0.02,Rain-Snow,Light Rain,350,2012-11-07 19:22:00
2:35 PM,35.6,33.8,93,29.88,5.0,North,12.7,21.9,0.03,Rain-Snow,Light Rain,350,2012-11-07 19:35:00
2:54 PM,36.0,33.1,89,29.88,6.0,North,13.8,-,0.05,Rain-Snow,Light Rain,360,2012-11-07 19:54:00
3:10 PM,35.6,33.8,93,29.88,6.0,North,13.8,-,0.02,Rain-Snow,Light Rain,350,2012-11-07 20:10:00
3:25 PM,37.4,33.8,87,29.88,6.0,North,13.8,-,0.03,Rain-Snow,Light Rain,350,2012-11-07 20:25:00
3:34 PM,37.4,33.8,87,29.87,7.0,NNW,16.1,24.2,0.03,Rain,Light Rain,340,2012-11-07 20:34:00
3:54 PM,37.0,34.0,89,29.87,7.0,North,16.1,-,0.04,Rain,Light Rain,350,2012-11-07 20:54:00
4:54 PM,37.0,33.1,86,29.87,8.0,North,18.4,26.5,0.04,Rain,Light Rain,360,2012-11-07 21:54:00
5:18 PM,37.4,33.8,87,29.87,8.0,NNW,18.4,27.6,0.02,Rain,Light Rain,340,2012-11-07 22:18:00
5:54 PM,36.0,33.1,89,29.88,8.0,North,15.0,24.2,0.05,Rain,Light Rain,350,2012-11-07 22:54:00
6:06 PM,35.6,33.8,93,29.88,7.0,NNW,13.8,23.0,0.01,Rain,Light Rain,340,2012-11-07 23:06:00
6:54 PM,36.0,33.1,89,29.87,8.0,NNW,16.1,23.0,0.04,Rain,Light Rain,340,2012-11-07 23:54:00
7:12 PM,35.6,33.8,93,29.88,9.0,North,13.8,25.3,0.00,Rain,Light Rain,350,2012-11-08 00:12:00
7:54 PM,36.0,33.1,89,29.88,9.0,NNW,12.7,19.6,0.02,Rain,Light Rain,340,2012-11-08 00:54:00
8:54 PM,36.0,33.1,89,29.88,9.0,North,15.0,-,0.02,Rain,Light Rain,350,2012-11-08 01:54:00
9:47 PM,35.6,32.0,87,29.86,9.0,North,17.3,27.6,0.01,Snow,Light Snow,350,2012-11-08 02:47:00
9:54 PM,36.0,32.0,86,29.86,7.0,North,18.4,26.5,0.02,Snow,Light Snow,360,2012-11-08 02:54:00
10:54 PM,36.0,32.0,86,29.84,8.0,North,18.4,23.0,0.01,Snow,Light Snow,360,2012-11-08 03:54:00
11:54 PM,35.1,32.0,89,29.83,7.0,North,11.5,-,0.00,Snow,Light Snow,350,2012-11-08 04:54:00